Location: Elstree
(51.6403°N, 0.2969°W)
Time: 15:35:31
(UTC+00:00)

SJ 16-02 - Pass Details

Date: 17 June 2021
Orbit: 606 x 616 km, 75.0° (Epoch: 29 July)

Event Time Altitude Azimuth Distance (km) Brightness Sun altitude
Rises 01:25:55 0° 327° (NNW) 2,877 5.3 -12.8°
Reaches altitude 10° 01:28:32 10° 312° (NW) 1,967 4.2 -12.6°
Maximum altitude 01:31:56 23° 261° (W) 1,321 2.8 -12.4°
Enters shadow 01:33:59 16° 224° (SW) 1,580 2.9 -12.3°
